Weather History for Cozumel, Mexico

Change the Weather History Date:

Friday, September 13, 2013

  Actual Average Record
Temperature  
Mean Temperature 72 °F -  
Max Temperature 77 °F 87 °F - ()
Min Temperature 68 °F 75 °F - ()
Cooling Degree Days 8    
Growing Degree Days 22 (Base 50)    
Moisture  
Dew Point 71 °F    
Average Humidity 98    
Maximum Humidity 100    
Minimum Humidity 89    
Precipitation  
Precipitation 8.20 in - - ()
Sea Level Pressure  
Sea Level Pressure 29.80 in    
Wind  
Wind Speed 4 mph ()    
Max Wind Speed 21 mph    
Max Gust Speed 23 mph    
Visibility 5.6 miles    
Events Rain    
T = Trace of Precipitation, MM = Missing Value Source: Averaged Metar Reports

Daily Weather History Graph

Daily Weather History Graph

Search for Another Location

Airport:

Trip Planner

Search our weather history database for the weather conditions in past years. The results will help you decide how hot, cold, wet, or windy it might be!

Date:

Astronomy

Sep. 13, 2013 Rise Set
Actual Time 6:34 AM CDT 6:52 PM CDT
Civil Twilight 6:12 AM CDT 7:14 PM CDT
Nautical Twilight 5:46 AM CDT 7:40 PM CDT
Astronomical Twilight 5:20 AM CDT 8:06 PM CDT
Moon 2:09 PM CDT (9/13) 12:36 AM CDT (9/13)
Length of Visible Light 13h 01m
Length of Day
12h 17m
First Quarter, 61% of the Moon is Illuminated
Sep 13
First Quarter
Sep 19
Full
Sep 26
Last Quarter
Oct 4
New
Oct 11
First Quarter

Hourly Weather History & Observations

Time (CDT) Temp. Dew Point Humidity Pressure Visibility Wind Dir Wind Speed Gust Speed Precip Events Conditions
12:47 AM 69.8 °F 69.8 °F 100% 29.80 in 7.0 mi East 3.5 mph - N/A   Overcast
1:49 AM 71.6 °F 69.8 °F 94% 29.80 in 7.0 mi East 6.9 mph - N/A   Mostly Cloudy
2:48 AM 71.6 °F 69.8 °F 94% 29.78 in 7.0 mi East 9.2 mph - N/A   Mostly Cloudy
3:48 AM 71.6 °F 69.8 °F 94% 29.80 in 7.0 mi ESE 6.9 mph - N/A   Mostly Cloudy
4:52 AM 68.0 °F 68.0 °F 100% 29.79 in 6.0 mi SSW 5.8 mph - N/A Rain Rain
5:48 AM 68.0 °F 68.0 °F 100% 29.79 in 7.0 mi Calm Calm - N/A   Overcast
6:54 AM 69.8 °F 69.8 °F 100% 29.79 in 7.0 mi SSE 3.5 mph - N/A   Overcast
7:40 AM 69.8 °F 69.8 °F 100% 29.81 in 7.0 mi Calm Calm - N/A   Overcast
8:41 AM 69.8 °F 69.8 °F 100% 29.83 in 7.0 mi Calm Calm - N/A   Overcast
9:41 AM 71.6 °F 71.6 °F 100% 29.86 in 7.0 mi Calm Calm - N/A   Overcast
10:40 AM 73.4 °F 73.4 °F 100% 29.83 in 7.0 mi Calm Calm - N/A   Overcast
11:22 AM 75.2 °F 73.4 °F 94% 29.84 in 1.0 mi SSE 11.5 mph 23.0 mph N/A Rain Rain
11:43 AM 68.0 °F 68.0 °F 100% 29.83 in 3.0 mi South 6.9 mph - N/A Rain Light Rain
12:23 PM 68.0 °F 68.0 °F 100% 29.81 in 5.0 mi Calm Calm - N/A   Overcast
12:47 PM 69.8 °F 69.8 °F 100% 29.80 in 5.0 mi Calm Calm - N/A   Overcast
1:42 PM 69.8 °F 69.8 °F 100% 29.77 in 5.0 mi Calm Calm - N/A   Overcast
2:48 PM 75.2 °F 73.4 °F 94% 29.76 in 6.0 mi East 5.8 mph - N/A   Overcast
3:40 PM 77.0 °F 73.4 °F 89% 29.76 in 7.0 mi East 4.6 mph - N/A   Overcast
4:48 PM 77.0 °F 73.4 °F 89% 29.77 in 7.0 mi East 8.1 mph - N/A   Mostly Cloudy
5:15 PM 75.2 °F 73.4 °F 94% 29.74 in 3.0 mi ESE 20.7 mph - N/A Rain Rain
5:51 PM 69.8 °F 69.8 °F 100% 29.75 in 1.0 mi ESE 3.5 mph - N/A Rain Rain
6:51 PM 71.6 °F 71.6 °F 100% 29.74 in 5.0 mi ESE 9.2 mph - N/A   Overcast
7:44 PM 71.6 °F 71.6 °F 100% 29.77 in 5.0 mi East 4.6 mph - N/A Rain Light Rain
8:47 PM 71.6 °F 71.6 °F 100% 29.79 in 6.0 mi ESE 9.2 mph - N/A   Mostly Cloudy
9:40 PM 71.6 °F 69.8 °F 94% 29.82 in 6.0 mi ESE 5.8 mph - N/A   Mostly Cloudy
10:40 PM 71.6 °F 71.6 °F 100% 29.81 in 6.0 mi SSE 3.5 mph - N/A   Mostly Cloudy
11:40 PM 69.8 °F 69.8 °F 100% 29.84 in 5.0 mi SE 9.2 mph - N/A Rain Light Rain